When you browse on this site, cookies collect data to enhance your experience and personalize the content and advertising you see.
Visit our Privacy Policy to learn more. By continuing to use the site, you agree to this use of cookies and data.
  • In United Kingdom
  • List of Countries
  • For 7 days
  • Water Temperature
  • Weather Map
  • Weather Widgets
  • user-avatar
    Login

    Hourly Weather Port Said

    Today, 19 September, Thursday

    Time Temperature Precipitation Wind Pressure Humidity
    00:00 +25°C° 0 mm 4 mps 760 mmHg 76%
    01:00 +25°C° 0 mm 4 mps 760 mmHg 76%
    02:00 +25°C° 0 mm 4 mps 760 mmHg 76%
    03:00 +25°C° 0 mm 4 mps 760 mmHg 77%
    04:00 +25°C° 0 mm 3 mps 760 mmHg 78%
    05:00 +25°C° 0 mm 3 mps 760 mmHg 79%
    06:00 +26°C° 0 mm 4 mps 760 mmHg 72%
    07:00 +28°C° 0 mm 4 mps 760 mmHg 65%
    08:00 +30°C° 0 mm 4 mps 760 mmHg 58%
    09:00 +32°C° 0 mm 4 mps 760 mmHg 55%
    10:00 +33°C° 0 mm 4 mps 760 mmHg 51%
    11:00 +33°C° 0 mm 4 mps 760 mmHg 48%
    12:00 +33°C° 0 mm 5 mps 759 mmHg 48%
    13:00 +33°C° 0 mm 5 mps 759 mmHg 49%
    14:00 +33°C° 0 mm 6 mps 759 mmHg 49%
    15:00 +32°C° 0 mm 6 mps 759 mmHg 55%
    16:00 +30°C° 0 mm 6 mps 759 mmHg 60%
    17:00 +29°C° 0 mm 6 mps 759 mmHg 66%
    18:00 +28°C° 0 mm 6 mps 759 mmHg 71%
    19:00 +27°C° 0 mm 5 mps 760 mmHg 76%
    20:00 +26°C° 0 mm 5 mps 760 mmHg 81%
    21:00 +26°C° 0 mm 5 mps 760 mmHg 80%
    22:00 +26°C° 0 mm 4 mps 760 mmHg 78%
    23:00 +26°C° 0 mm 4 mps 760 mmHg 77%

    Tomorrow, 20 September, Friday

    Time Temperature Precipitation Wind Pressure Humidity
    00:00 +25°C° 0 mm 4 mps 760 mmHg 78%
    01:00 +25°C° 0 mm 5 mps 760 mmHg 79%
    02:00 +25°C° 0 mm 5 mps 759 mmHg 80%
    03:00 +23°C° 0 mm 5 mps 759 mmHg 80%
    04:00 +23°C° 0 mm 4 mps 759 mmHg 80%
    05:00 +24°C° 0 mm 3 mps 760 mmHg 79%
    06:00 +25°C° 0 mm 3 mps 760 mmHg 71%
    07:00 +27°C° 0 mm 3 mps 760 mmHg 62%
    08:00 +29°C° 0 mm 3 mps 760 mmHg 53%
    09:00 +30°C° 0 mm 3 mps 760 mmHg 49%
    10:00 +32°C° 0 mm 4 mps 760 mmHg 44%
    11:00 +33°C° 0 mm 4 mps 759 mmHg 40%
    12:00 +33°C° 0 mm 5 mps 759 mmHg 40%
    13:00 +33°C° 0 mm 6 mps 758 mmHg 41%
    14:00 +33°C° 0 mm 7 mps 758 mmHg 41%
    15:00 +32°C° 0 mm 7 mps 758 mmHg 45%
    16:00 +30°C° 0 mm 7 mps 758 mmHg 50%
    17:00 +28°C° 0 mm 7 mps 758 mmHg 54%
    18:00 +27°C° 0 mm 6 mps 759 mmHg 60%
    19:00 +26°C° 0 mm 5 mps 759 mmHg 65%
    20:00 +25°C° 0 mm 5 mps 760 mmHg 71%
    21:00 +25°C° 0 mm 5 mps 760 mmHg 72%
    22:00 +23°C° 0 mm 4 mps 760 mmHg 73%
    23:00 +23°C° 0 mm 4 mps 760 mmHg 75%

    Day after tomorrow, 21 September, Saturday

    Time Temperature Precipitation Wind Pressure Humidity
    00:00 +22°C° 0 mm 4 mps 760 mmHg 77%
    01:00 +22°C° 0 mm 4 mps 759 mmHg 79%
    02:00 +21°C° 0 mm 4 mps 759 mmHg 81%
    03:00 +21°C° 0 mm 4 mps 759 mmHg 84%
    04:00 +21°C° 0 mm 4 mps 759 mmHg 86%
    05:00 +21°C° 0 mm 4 mps 759 mmHg 88%
    06:00 +22°C° 0 mm 4 mps 759 mmHg 82%
    07:00 +25°C° 0 mm 4 mps 759 mmHg 75%
    08:00 +27°C° 0 mm 3 mps 760 mmHg 69%
    09:00 +29°C° 0 mm 4 mps 759 mmHg 60%
    10:00 +30°C° 0 mm 4 mps 759 mmHg 51%
    11:00 +33°C° 0 mm 4 mps 759 mmHg 42%
    12:00 +33°C° 0 mm 5 mps 759 mmHg 42%
    13:00 +33°C° 0 mm 6 mps 758 mmHg 43%
    14:00 +34°C° 0 mm 7 mps 758 mmHg 44%
    15:00 +32°C° 0 mm 7 mps 758 mmHg 49%
    16:00 +30°C° 0 mm 7 mps 758 mmHg 55%
    17:00 +29°C° 0 mm 7 mps 758 mmHg 60%
    18:00 +28°C° 0 mm 6 mps 758 mmHg 67%
    19:00 +26°C° 0 mm 6 mps 758 mmHg 73%
    20:00 +25°C° 0 mm 5 mps 759 mmHg 80%
    21:00 +25°C° 0 mm 5 mps 759 mmHg 83%
    22:00 +23°C° 0 mm 5 mps 759 mmHg 85%
    23:00 +23°C° 0 mm 4 mps 759 mmHg 88%

    22 September, Sunday

    Time Temperature Precipitation Wind Pressure Humidity
    00:00 +23°C° 0 mm 4 mps 758 mmHg 87%
    01:00 +23°C° 0 mm 4 mps 758 mmHg 87%
    02:00 +23°C° 0 mm 4 mps 758 mmHg 87%
    03:00 +23°C° 0 mm 4 mps 758 mmHg 87%
    04:00 +23°C° 0 mm 4 mps 758 mmHg 88%
    05:00 +23°C° 0 mm 4 mps 758 mmHg 88%
    06:00 +25°C° 0 mm 4 mps 758 mmHg 81%
    07:00 +26°C° 0 mm 4 mps 759 mmHg 73%
    08:00 +27°C° 0 mm 3 mps 759 mmHg 66%
    09:00 +29°C° 0 mm 3 mps 759 mmHg 58%
    10:00 +31°C° 0 mm 3 mps 759 mmHg 50%
    11:00 +33°C° 0 mm 3 mps 759 mmHg 42%
    12:00 +33°C° 0 mm 4 mps 758 mmHg 44%
    13:00 +33°C° 0 mm 6 mps 758 mmHg 45%
    14:00 +33°C° 0 mm 7 mps 757 mmHg 47%
    15:00 +32°C° 0 mm 7 mps 757 mmHg 53%
    16:00 +30°C° 0 mm 7 mps 757 mmHg 59%
    17:00 +29°C° 0 mm 7 mps 757 mmHg 66%
    18:00 +28°C° 0 mm 6 mps 758 mmHg 69%
    19:00 +27°C° 0 mm 6 mps 758 mmHg 71%
    20:00 +26°C° 0 mm 6 mps 759 mmHg 74%
    21:00 +26°C° 0 mm 5 mps 759 mmHg 75%
    22:00 +26°C° 0 mm 5 mps 759 mmHg 76%
    23:00 +25°C° 0 mm 4 mps 759 mmHg 77%

    23 September, Monday

    Time Temperature Precipitation Wind Pressure Humidity
    00:00 +25°C° 0 mm 4 mps 759 mmHg 76%
    01:00 +25°C° 0 mm 4 mps 759 mmHg 76%
    02:00 +25°C° 0 mm 4 mps 759 mmHg 76%
    03:00 +23°C° 0 mm 4 mps 759 mmHg 78%
    04:00 +23°C° 0 mm 4 mps 759 mmHg 80%
    05:00 +23°C° 0 mm 4 mps 759 mmHg 82%
    06:00 +26°C° 0 mm 4 mps 760 mmHg 74%
    07:00 +27°C° 0 mm 4 mps 760 mmHg 66%
    08:00 +29°C° 0 mm 4 mps 760 mmHg 58%
    09:00 +30°C° 0 mm 4 mps 760 mmHg 54%
    10:00 +32°C° 0 mm 4 mps 760 mmHg 50%
    11:00 +33°C° 0 mm 4 mps 760 mmHg 47%
    12:00 +33°C° 0 mm 5 mps 760 mmHg 47%
    13:00 +33°C° 0 mm 5 mps 759 mmHg 47%
    14:00 +33°C° 0 mm 5 mps 759 mmHg 47%
    15:00 +30°C° 0 mm 6 mps 759 mmHg 52%
    16:00 +29°C° 0 mm 6 mps 758 mmHg 57%
    17:00 +28°C° 0 mm 6 mps 758 mmHg 62%
    18:00 +27°C° 0 mm 6 mps 759 mmHg 67%
    19:00 +26°C° 0 mm 5 mps 759 mmHg 72%
    20:00 +25°C° 0 mm 5 mps 760 mmHg 78%
    21:00 +23°C° 0 mm 4 mps 760 mmHg 78%
    22:00 +23°C° 0 mm 4 mps 760 mmHg 79%
    23:00 +22°C° 0 mm 3 mps 760 mmHg 79%

    24 September, Tuesday

    Time Temperature Precipitation Wind Pressure Humidity
    00:00 +22°C° 0 mm 3 mps 760 mmHg 82%
    01:00 +21°C° 0 mm 3 mps 759 mmHg 84%
    02:00 +21°C° 0 mm 3 mps 759 mmHg 86%
    03:00 +21°C° 0 mm 3 mps 759 mmHg 86%
    04:00 +20°C° 0 mm 3 mps 759 mmHg 87%
    05:00 +20°C° 0 mm 3 mps 759 mmHg 87%
    06:00 +22°C° 0 mm 3 mps 759 mmHg 78%
    07:00 +25°C° 0 mm 3 mps 760 mmHg 70%
    08:00 +26°C° 0 mm 3 mps 760 mmHg 61%
    09:00 +28°C° 0 mm 3 mps 760 mmHg 54%
    10:00 +29°C° 0 mm 3 mps 760 mmHg 47%
    11:00 +31°C° 0 mm 3 mps 760 mmHg 40%
    12:00 +32°C° 0 mm 4 mps 759 mmHg 41%
    13:00 +32°C° 0 mm 5 mps 759 mmHg 42%
    14:00 +32°C° 0 mm 6 mps 758 mmHg 43%
    15:00 +30°C° 0 mm 6 mps 758 mmHg 48%
    16:00 +29°C° 0 mm 6 mps 758 mmHg 53%
    17:00 +28°C° 0 mm 7 mps 758 mmHg 58%
    18:00 +26°C° 0 mm 6 mps 758 mmHg 64%
    19:00 +25°C° 0 mm 5 mps 759 mmHg 69%
    20:00 +23°C° 0 mm 5 mps 759 mmHg 75%
    21:00 +23°C° 0 mm 4 mps 759 mmHg 76%
    22:00 +22°C° 0 mm 4 mps 759 mmHg 78%
    23:00 +22°C° 0 mm 3 mps 759 mmHg 80%
    Show more